TimeMST,TemperatureF,Dew PointF,Humidity,Sea Level PressureIn,VisibilityMPH,Wind Direction,Wind SpeedMPH,Gust SpeedMPH,PrecipitationIn,Events,Conditions,WindDirDegrees,DateUTC
12:53 AM,-2.0,-5.1,87,30.21,10.0,Calm,Calm,-,N/A,,Scattered Clouds,0,2013-01-12 07:53:00
1:53 AM,-8.0,-11.0,86,30.25,10.0,ENE,3.5,-,N/A,,Clear,70,2013-01-12 08:53:00
2:53 AM,-9.0,-13.0,83,30.27,10.0,ENE,3.5,-,N/A,,Clear,60,2013-01-12 09:53:00
3:53 AM,-9.0,-14.1,79,30.26,10.0,Calm,Calm,-,N/A,,Clear,0,2013-01-12 10:53:00
4:53 AM,-9.9,-16.1,74,30.27,10.0,Calm,Calm,-,N/A,,Clear,0,2013-01-12 11:53:00
5:38 AM,-11.2,-16.6,77,29.97,10.0,Calm,Calm,-,N/A,,Partly Cloudy,0,2013-01-12 12:38:00
5:53 AM,-13.0,-18.0,78,30.29,10.0,Calm,Calm,-,N/A,,Clear,0,2013-01-12 12:53:00
6:53 AM,-16.1,-20.9,79,30.33,10.0,Calm,Calm,-,N/A,,Clear,0,2013-01-12 13:53:00
7:53 AM,-18.0,-22.0,82,30.36,10.0,NNE,4.6,-,N/A,,Partly Cloudy,20,2013-01-12 14:53:00
8:53 AM,-15.0,-18.9,82,30.36,10.0,East,4.6,-,N/A,,Clear,80,2013-01-12 15:53:00
9:03 AM,-14.8,-18.4,84,30.04,7.0,NE,4.6,-,N/A,,Scattered Clouds,40,2013-01-12 16:03:00
9:14 AM,-14.8,-18.4,84,30.04,0.8,ENE,4.6,-,N/A,,Haze,60,2013-01-12 16:14:00
9:28 AM,-13.0,-18.4,77,30.04,2.0,ENE,4.6,-,N/A,,Haze,70,2013-01-12 16:28:00
9:41 AM,-11.2,-16.6,77,30.04,4.0,ENE,3.5,-,N/A,,Partly Cloudy,70,2013-01-12 16:41:00
9:53 AM,-9.9,-15.0,78,30.36,9.0,Calm,Calm,-,N/A,,Partly Cloudy,0,2013-01-12 16:53:00
10:53 AM,-7.1,-8.0,96,30.36,10.0,Calm,Calm,-,N/A,,Clear,0,2013-01-12 17:53:00
11:53 AM,-2.0,-7.1,79,30.34,10.0,Calm,Calm,-,N/A,,Scattered Clouds,0,2013-01-12 18:53:00
12:53 PM,1.0,-5.1,75,30.34,10.0,SSW,4.6,-,N/A,,Mostly Cloudy,210,2013-01-12 19:53:00
1:53 PM,1.9,-4.0,76,30.36,10.0,SW,4.6,-,N/A,,Overcast,220,2013-01-12 20:53:00
2:53 PM,3.9,-2.0,76,30.36,10.0,South,3.5,-,N/A,,Overcast,180,2013-01-12 21:53:00
3:53 PM,5.0,-2.9,70,30.35,7.0,Calm,Calm,-,N/A,,Overcast,0,2013-01-12 22:53:00
4:53 PM,5.0,-2.0,73,30.37,3.0,Calm,Calm,-,0.00,Snow,Light Snow,0,2013-01-12 23:53:00
5:01 PM,5.0,-0.4,78,30.05,2.0,Calm,Calm,-,0.00,Snow,Light Snow,0,2013-01-13 00:01:00
5:15 PM,3.2,-0.4,85,30.05,1.8,Calm,Calm,-,0.00,Snow,Light Snow,0,2013-01-13 00:15:00
5:31 PM,3.2,-0.4,85,30.05,2.5,Calm,Calm,-,0.00,Snow,Light Snow,0,2013-01-13 00:31:00
5:53 PM,3.0,-0.9,84,30.39,6.0,Calm,Calm,-,0.00,,Overcast,0,2013-01-13 00:53:00
6:53 PM,1.9,-2.0,83,30.41,10.0,NNE,3.5,-,N/A,,Overcast,30,2013-01-13 01:53:00
7:53 PM,1.0,-2.9,83,30.43,3.0,ENE,4.6,-,0.00,Snow,Light Snow,60,2013-01-13 02:53:00
8:02 PM,1.4,-2.2,85,30.06,2.0,NE,4.6,-,0.00,Snow,Light Snow,50,2013-01-13 03:02:00
8:41 PM,1.4,-2.2,85,30.06,3.0,Calm,Calm,-,0.00,Snow,Light Snow,0,2013-01-13 03:41:00
8:53 PM,1.0,-2.9,83,30.42,4.0,NNE,4.6,-,0.00,Snow,Light Snow,30,2013-01-13 03:53:00
9:20 PM,-0.4,-4.0,85,30.06,4.0,NNE,3.5,-,0.00,,Overcast,30,2013-01-13 04:20:00
9:35 PM,-0.4,-5.8,78,30.07,9.0,NNE,4.6,-,0.00,,Overcast,20,2013-01-13 04:35:00
9:53 PM,-0.9,-5.1,83,30.41,7.0,NE,3.5,-,0.00,,Overcast,50,2013-01-13 04:53:00
10:53 PM,-2.0,-6.0,83,30.41,6.0,NE,4.6,-,0.00,Snow,Light Snow,50,2013-01-13 05:53:00
11:35 PM,-2.2,-5.8,85,30.07,6.0,NE,3.5,-,0.00,,Overcast,50,2013-01-13 06:35:00
11:53 PM,-2.9,-7.1,82,30.40,8.0,NE,3.5,-,0.00,,Overcast,40,2013-01-13 06:53:00